Regional Weather Roundup
Issued by NWS

Home | Current Version | Previous Version | Text Only | Print | Product List | Glossary On
Versions: 1 2 3 4 5 6 7 8 9 10 11 12 13 14 15 16 17 18 19 20 21 22 23 24 25 26 27 28 29 30 31 32 33 34 35 36 37 38 39 40 41 42 43 44 45 46 47 48 49 50
000
ASUS43 KMPX 181910
RWRMN
WEATHER ROUNDUP FOR MINNESOTA
NATIONAL WEATHER SERVICE TWIN CITIES/CHANHASSEN MN
100 PM CST SAT NOV 18 2017


NOTE: "FAIR" INDICATES FEW OR NO CLOUDS BELOW 12,000 FEET WITH NO
SIGNIFICANT WEATHER AND/OR OBSTRUCTIONS TO VISIBILITY. N/A MEANS
CURRENT SKY AND/OR WEATHER CONDITIONS ARE NOT AVAILABLE.

MNZ060>063-068>070-182000-
   Twin Cities Metro

CITY           SKY/WX    TMP DP  RH WIND       PRES   REMARKS
TWIN CITIES    SUNNY     37  23  56 NW21G26   29.84R
ST PAUL        SUNNY     37  22  54 NW17      29.84R
CRYSTAL        SUNNY     36  18  48 NW21G31   29.83R
BLAINE         SUNNY     37  21  52 NW18G26   29.83R
LAKEVILLE      SUNNY     36  25  64 NW21G28   29.83R
EDEN PRAIRIE   SUNNY     37  21  52 NW22G33   29.83R
SOUTH ST PAUL  SUNNY     37  21  52 NW16G25   29.83R
LAKE ELMO      FAIR      36  25  64 NW12      29.83R
$$
MNZ001>005-007-008-013>017-022>024-027-028-182000-
   Northwest Minnesota

CITY           SKY/WX    TMP DP  RH WIND       PRES   REMARKS
BEMIDJI        FLURRIES  19  12  75 NW15      29.91R WCI   4
HALLOCK        PTSUNNY   18  10  73 NW14      30.00R WCI   4
ROSEAU         FLURRIES  18  10  73 W8G16     29.94S WCI   7
WARROAD        FLURRIES  16   9  73 NW10      29.93S WCI   3
THIEF RVR FALL FLURRIES  17  11  77 NW16      29.98S WCI   2
CROOKSTON      FLURRIES  18  10  73 NW13      30.02F WCI   4
FOSSTON        LGT SNOW  16  10  79 NW14      29.97S WCI   1
DETROIT LAKES  LGT SNOW  19  14  79 NW20G26   29.98R WCI   4
MOORHEAD       CLOUDY    21  10  63 NW17G25   30.04S WCI   7
PARK RAPIDS    CLOUDY    22  13  68 NW17      29.91S WCI   8
MAHNOMEN       FLURRIES  18  12  77 NW13      29.98S WCI   4
$$
MNZ006-009>011-018-025>026-182000-
   North Central Minnesota

CITY           SKY/WX    TMP DP  RH WIND       PRES   REMARKS
BAUDETTE       LGT SNOW  17  10  74 NW13      29.89F WCI   4
FLAG ISLAND    CLOUDY    16   9  73 W18       29.89R WCI  -1
INTL FALLS     LGT SNOW  21  12  68 NW14      29.84S WCI   8
WASKISH        CLOUDY    19  12  73 W15       29.90S WCI   5
BIG FORK       FLURRIES  23  14  68 NW9       29.85S WCI  13
LONGVILLE      FLURRIES  21  14  73 NW9G22    29.89S WCI  11
GRAND RAPIDS   CLOUDY    24  15  68 NW21      29.87R WCI   9
CRANE LAKE     CLOUDY    21  18  86 CALM      29.83S
ORR            CLOUDY    21  12  68 NW10G16   29.79S WCI  10
COOK           CLOUDY    21  16  79 NW10G17   29.82R WCI  10
WALKER         CLOUDY    20  12  69 W14       29.89F WCI   7
$$
MNZ012-019>021-037-182000-
   Northeast Minnesota

CITY           SKY/WX    TMP DP  RH WIND       PRES   REMARKS
DULUTH         PTSUNNY   24  16  71 NW17G28   29.77R WCI  11
ELY            CLOUDY    21  18  86 NW10G17   29.77R WCI  10
HIBBING        PTSUNNY   21  14  74 NW18      29.81S WCI   6
EVELETH        PTSUNNY   23  12  63 NW15G22   29.81S WCI  10
DULUTH HARBOR  CLOUDY    30  21  69 NW20      29.82R WCI  18
TWO HARBORS    MOSUNNY   34  21  60 W10G20    29.74R WCI  26
SILVER BAY     MOSUNNY   28  19  69 NW9G18    29.73S WCI  20
GRAND MARAIS     N/A     31  21  66 VRB6      29.74R WCI  25
G MARAIS ARPRT CLOUDY    23  16  74 NW10G21   29.67R WCI  12
$$
MNZ029>031-032-039>041-046>048-054>057-064-182000-
   West Central Minnesota

CITY           SKY/WX    TMP DP  RH WIND       PRES   REMARKS
FERGUS FALLS   MOSUNNY   23  14  68 NW21      30.03R WCI   8
WHEATON        SUNNY     27  10  50 NW21G29   30.04S WCI  13
MORRIS         SUNNY     28  16  59 NW26      29.98S WCI  13
ALEXANDRIA     MOSUNNY   26  15  63 NW21      29.94S WCI  12
ELBOW LAKE     FAIR      24  15  69 NW17G26   30.00R HAZE    WCI  10
WADENA         PTSUNNY   21  14  73 NW15      29.93S WCI   8
GLENWOOD       SUNNY     27  18  69 NW24G31   29.94S WCI  12
APPLETON         N/A     30  16  55 NW23G29   29.99S WCI  17
BENSON         SUNNY     28  14  54 N25G33    29.99R WCI  14
ORTONVILLE     SUNNY     28  16  59 MISG      30.01R
MADISON        SUNNY     34  18  51 NW22G29   30.01R WCI  22
WILLMAR        FAIR      30  19  64 NW25      29.95S WCI  16
$$
MNZ033>034-036-042>043-049>051-058-059-182000-
   Central Minnesota

CITY           SKY/WX    TMP DP  RH WIND       PRES   REMARKS
ST CLOUD       MOSUNNY   31  19  61 NW22G28   29.88R WCI  18
SAUK CENTRE    MOCLDY    27  17  66 NW21      29.92S WCI  13
PAYNESVILLE    SUNNY     28  20  72 NW20G25   29.91S WCI  15
AITKIN         PTSUNNY   25  16  68 NW12G21   29.85R WCI  14
PINE RIVER     CLOUDY    21  12  68 NW13G18   29.93R WCI   9
BRAINERD       PTSUNNY   27  14  58 N21G28    29.89R WCI  13
STAPLES        CLOUDY    23  14  68 NW16      29.92S WCI  10
LONG PRAIRIE   FAIR      27  18  69 W16G25    29.91S WCI  14
LITTLE FALLS   SUNNY     30  10  43 NW13G23   29.90R WCI  20
LITCHFIELD     SUNNY     30  21  69 NW17G30   29.90S WCI  18
BUFFALO        MOSUNNY   33  19  56 W20G25    29.88R WCI  21
MAPLE LAKE     SUNNY     33  22  64 NW15G25   29.88S WCI  23
HUTCHINSON     MOSUNNY   32  23  68 NW20      29.91R WCI  21
$$
MNZ037-044-045-052-053-182000-
   East Central Minnesota

CITY           SKY/WX    TMP DP  RH WIND       PRES   REMARKS
PRINCETON      SUNNY     34  19  55 W17G24    29.86R WCI  23
MORA           SUNNY     32  21  64 NW20G26   29.85S WCI  20
CAMBRIDGE      SUNNY     36  21  55 W17G23    29.84R
RUSH CITY      SUNNY     32  21  63 NW10G21   29.83S WCI  24
MOOSE LAKE     PTSUNNY   30  18  59 NW13G18   29.81R WCI  20
HINCKLEY       FAIR      32  19  59 NW13      29.82S WCI  22
CLOQUET        CLOUDY    27  16  63 NW15      29.80R WCI  15
MCGREGOR       PTSUNNY   28  18  64 NW15G23   29.84S WCI  17
$$
MNZ071>073-080-081-089-090-097-098-182000-
   Southwest Minnesota

CITY           SKY/WX    TMP DP  RH WIND       PRES   REMARKS
MONTEVIDEO     MOSUNNY   32  19  59 N17G31    29.99R WCI  21
GRANITE FALLS  SUNNY     32  21  64 NW25G32   30.00R WCI  18
CANBY          SUNNY     33  18  55 NW21G26   30.01F WCI  21
MARSHALL       SUNNY     31  19  61 NW25G33   29.97F WCI  17
REDWOOD FALLS  MOSUNNY   31  17  56 NW18G31   29.95R WCI  19
OLIVIA         MOSUNNY   30  21  69 NW23G31   29.94S WCI  17
PIPESTONE      MOSUNNY   32  19  59 NW22G31   29.96F WCI  19
WINDOM         SUNNY     32  16  51 NW26G37   29.91S WCI  18
WORTHINGTON    SUNNY     35  20  54 NW28G37   29.94R WCI  22
JACKSON        SUNNY     34  21  60 NW23G32   29.92R WCI  22
SLAYTON        MOSUNNY   32  20  60 NW21G28   29.95S WCI  20
$$
MNZ065>067-074>077-082>085-091>093-182000-
   South Central Minnesota

CITY           SKY/WX    TMP DP  RH WIND       PRES   REMARKS
MANKATO        SUNNY     35  23  61 NW25G36   29.88R WCI  23
NEW ULM        MOSUNNY   32  19  59 NW24G33   29.91R WCI  19
ST JAMES       MOSUNNY   34  21  60 NW24G33   29.92R WCI  21
FAIRMONT       SUNNY     34  23  64 NW28G37   29.90R WCI  21
GLENCOE        PTSUNNY   34  24  67 W22       29.88R WCI  22
FARIBAULT      SUNNY     37  27  65 NW20G25   29.83R
OWATONNA       SUNNY     39  27  60 NW22G28   29.83R
WASECA         SUNNY     36  27  69 NW18G28   29.86R
ALBERT LEA     SUNNY     37  25  60 NW16G24   29.83R
$$
MNZ078>079-086>088-094>096-182000-
   Southeast Minnesota

CITY           SKY/WX    TMP DP  RH WIND       PRES   REMARKS
ROCHESTER      SUNNY     39  30  70 NW23G30   29.78R
RED WING       SUNNY     39  23  52 MISG      29.79S
DODGE CENTER   SUNNY     37  27  65 NW18      29.80R
WINONA         SUNNY     41  32  70 NW14G20   29.76S
AUSTIN         MOSUNNY   37  27  65 NW21G28   29.80R
PRESTON        SUNNY     39  26  59 NW16G26   29.76R
$$
ABBREVIATIONS USED IN REMARKS
   TC - TEMPERATURES IN CELSIUS
  WCI - WIND CHILL INDEX
   HX - HEAT INDEX
  VSB - VISIBILITY
$$




USA.gov is the U.S. government's official web portal to all federal, state and local government web resources and services.